This is the latest recevied weather packets stored in our database for station/object N7WSS. If no packets are shown the sender has not sent any weather packets the latest 10 day(s).
| Time | Temp. | Humidity | Pressure | Rain* | Wind** | Luminosity | Snow |
|---|---|---|---|---|---|---|---|
| 1787726150 | 28.89° C | 36% | 1012.8 hPa | 0 mm | - | - | - |
| 1787725846 | 29.44° C | 36% | 1012.4 hPa | 0 mm | - | - | - |
| 1787725542 | 29.44° C | 35% | 1012.7 hPa | 0 mm | - | - | - |
| 1787725233 | 29.44° C | 35% | 1012.6 hPa | 0 mm | - | - | - |
| 1787724932 | 29.44° C | 36% | 1012.6 hPa | 0 mm | - | - | - |
| 1787724627 | 29.44° C | 36% | 1012.5 hPa | 0 mm | - | - | - |
| 1787724327 | 29.44° C | 36% | 1012.4 hPa | 0 mm | - | - | - |
| 1787724022 | 29.44° C | 35% | 1012.3 hPa | 0 mm | - | - | - |
| 1787723721 | 30° C | 35% | 1012.5 hPa | 0 mm | - | - | - |
| 1787723418 | 30° C | 35% | 1012.1 hPa | 0 mm | - | - | - |
| 1787723113 | 30° C | 35% | 1012.4 hPa | 0 mm | - | - | - |
| 1787722813 | 30.56° C | 34% | 1012.3 hPa | 0 mm | - | - | - |
| 1787722508 | 31.11° C | 33% | 1012.3 hPa | 0 mm | - | - | - |
| 1787722203 | 31.11° C | 33% | 1012 hPa | 0 mm | - | - | - |
| 1787721899 | 31.11° C | 33% | 1012.3 hPa | 0 mm | - | - | - |
| 1787721595 | 31.11° C | 33% | 1012 hPa | 0 mm | - | - | - |
| 1787721294 | 31.11° C | 33% | 1012.1 hPa | 0 mm | - | - | - |
| 1787720989 | 31.67° C | 33% | 1012.1 hPa | 0 mm | - | - | - |
| 1787720688 | 31.11° C | 32% | 1011.9 hPa | 0 mm | - | - | - |
| 1787720383 | 31.11° C | 32% | 1011.8 hPa | 0 mm | - | - | - |
| 1787720082 | 31.11° C | 33% | 1011.9 hPa | 0 mm | - | - | - |
| 1787719778 | 30.56° C | 33% | 1011.9 hPa | 0 mm | - | - | - |
| 1787719477 | 30.56° C | 35% | 1012 hPa | 0 mm | - | - | - |
| 1787719173 | 30.56° C | 35% | 1012 hPa | 0 mm | - | - | - |
| 1787718868 | 30.56° C | 34% | 1011.9 hPa | 0 mm | - | - | - |
* Rain latest hour (hover to see other rain measurements)
** Current wind speed in m/s (hover to see current wind gust speed)